Location: Sanluri
(39.5670°N, 8.9000°E)
Time: 04:11:13
(UTC+01:00)

ISS - Visible Passes

Search period start: 23 January 2019 00:00
Search period end: 02 February 2019 00:00
Orbit: 404 x 411 km, 51.6° (Epoch: 23 January)

Date Brightness Start Highest point End Pass type
(mag) Time Alt. Az. Time Alt. Az. Time Alt. Az.
23 Jan -3.7 18:36:01 10° SW 18:39:16 63° SE 18:41:04 24° ENE visible
23 Jan -0.4 20:13:30 10° WNW 20:13:48 12° WNW 20:13:48 12° WNW visible
24 Jan -2.4 19:21:35 10° W 19:24:32 30° NNW 19:24:46 29° NNW visible
25 Jan -3.1 18:29:52 10° WSW 18:33:05 50° NW 18:35:40 15° NE visible
26 Jan -1.6 19:16:15 10° WNW 19:18:36 18° NNW 19:19:13 17° N visible
27 Jan -2.0 18:24:13 10° W 18:27:00 25° NNW 18:29:49 10° NNE visible
28 Jan -1.3 19:11:12 10° NW 19:12:44 13° NNW 19:13:26 12° N visible
29 Jan -1.4 18:18:56 10° WNW 18:21:02 16° NNW 18:23:08 10° NNE visible
30 Jan -1.2 19:06:12 10° NNW 19:06:54 10° N 19:07:31 10° N visible
31 Jan -1.3 18:13:53 10° NNW 18:15:07 12° N 18:16:21 10° NNE visible
01 Feb -1.3 19:00:15 10° N 19:01:03 11° N 19:01:34 10° NNE visible
